This is the latest recevied weather packets stored in our database for station/object EA1RCG-11. If no packets are shown the sender has not sent any weather packets the latest 10 day(s).
| Time | Temp. | Humidity | Pressure | Rain* | Wind** | Luminosity | Snow |
|---|---|---|---|---|---|---|---|
| 1788136883 | 18.89° C | 60% | 986.3 hPa | - | - | - | - |
| 1788135070 | 18.89° C | 60% | 986.3 hPa | - | - | - | - |
| 1788133259 | 18.89° C | 60% | 986.5 hPa | - | - | - | - |
| 1788131449 | 19.44° C | 59% | 986.6 hPa | - | - | - | - |
| 1788129638 | 19.44° C | 59% | 986.4 hPa | - | - | - | - |
| 1788127826 | 19.44° C | 59% | 986.1 hPa | - | - | - | - |
| 1788126013 | 20° C | 59% | 985.9 hPa | - | - | - | - |
| 1788124202 | 20° C | 59% | 985.8 hPa | - | - | - | - |
| 1788122388 | 19.44° C | 60% | 985.6 hPa | - | - | - | - |
| 1788116940 | 20.56° C | 59% | 984.1 hPa | - | - | - | - |
| 1788115127 | 21.67° C | 58% | 983.7 hPa | - | - | - | - |
| 1788113312 | 22.78° C | 56% | 983.7 hPa | - | - | - | - |
| 1788111496 | 23.89° C | 55% | 983.5 hPa | - | - | - | - |
| 1788109680 | 24.44° C | 54% | 983.3 hPa | - | - | - | - |
| 1788107868 | 25.56° C | 53% | 982.9 hPa | - | - | - | - |
| 1788106063 | 26.11° C | 52% | 982.5 hPa | - | - | - | - |
| 1788104260 | 25.56° C | 52% | 982.4 hPa | - | - | - | - |
| 1788102460 | 26.11° C | 52% | 982.3 hPa | - | - | - | - |
| 1788100660 | 26.67° C | 51% | 982.3 hPa | - | - | - | - |
| 1788098860 | 26.67° C | 51% | 982.5 hPa | - | - | - | - |
| 1788097060 | 26.67° C | 52% | 982.8 hPa | - | - | - | - |
| 1788095259 | 27.22° C | 51% | 982.4 hPa | - | - | - | - |
| 1788093459 | 28.89° C | 48% | 982.5 hPa | - | - | - | - |
| 1788091659 | 29.44° C | 48% | 982.7 hPa | - | - | - | - |
| 1788089859 | 29.44° C | 47% | 982.8 hPa | - | - | - | - |
* Rain since midnight (hover to see other rain measurements)
** Current wind speed in m/s (hover to see current wind gust speed)